Location: ??????????
(54.8537°N, 38.8755°E)
Time: 23:17:09
(UTC+00:00)

Transit 2A Rocket - Pass Details

Date: 15 September 2024
Orbit: 582 x 908 km, 66.7° (Epoch: 09 October)

Event Time Altitude Azimuth Distance (km) Brightness Sun altitude
Exits shadow 22:55:21 43° 300° (WNW) 1,255 6.0 -29.3°
Maximum altitude 22:56:19 47° 327° (NNW) 1,197 6.0 -29.2°
Drops below altitude 10° 23:02:09 10° 41° (NE) 2,580 8.6 -28.8°
Sets 23:04:45 0° 47° (NE) 3,498 9.5 -28.6°
